Погода в им. Воровского

Россия / Владимирская область     55°43′25″N   41°07′11″E
темп.,
°C
ветер,
м/с
пор.,
м/с
влажн.,
%
обл.,
%
осадки,
мм/ч
давл.,
гПа
погр.,
м
22 января, сб
сб2200:00−6ююв51294100 0.3 1003519
03:00−6ююв41193100 0.4 1004578
06:00−7юв41195100 0.2 1006492
09:00−6юв51194100 0.6 1007584
12:00−6юв41092100 0.1 1009519
15:00−6юв3894100 0.2 1011520
18:00−6юв3895100 0.5 1013430
21:00−7юв279672 0.9 1016229
23 января, вс
вс2300:00−15вюв2210099 0.0 101817
03:00−16вюв22100100 0.1 102132
06:00−17юв2210076 0.1 102314
09:00−18в1110096 0.1 10269
12:00−9вюв119496 0.0 1028137
15:00−8св119673 0.0 102918
18:00−16всв1110080 0.0 10339
21:00−19всв1110098 0.0 10359
24 января, пн
пн2400:00−20ссв21100100 0.0 103610
03:00−20св22100100 0.0 103714
06:00−21св21100100 0.0 103816
09:00−20св23100100 0.0 103938
12:00−9в249470 0.0 1038160
15:00−7всв24955 0.0 1037181
18:00−15всв2210081 0.0 103713
21:00−15в23100100 0.0 103637
25 января, вт
вт2500:00−17вюв22100100 0.0 103416
03:00−18юв119956 0.0 10329
06:00−19ююв2410057 0.0 103138
09:00−18ююв269828 0.0 102991
12:00−10ю36906 0.0 1026233
15:00−8ю389357 0.0 1023327
18:00−10ю3109697 0.0 1022308
21:00−10ююз3119583 0.1 1021341
26 января, ср
ср2600:00−12ююз399693 0.1 1020243
03:00−14ю289993 0.1 1020153
06:00−16ююз279989 0.0 1020123
09:00−16ююз26100100 0.1 1020105
12:00−11юз2493100 0.0 1019220
15:00−10юз2494100 0.0 1019272
18:00−15юз2199100 0.0 101930
21:00−15юз139983 0.1 101945